This demonstration page uses our WeatherBlox Daily Observations layout. Learn more.

Left ArrowRight Arrow

47.50024, -111.30081

Hourly Observations for May 30, 2022

Temp ( °F °C ) Dew Point ( °F °C ) Humidity (%) Winds ( mph kmh ) Pressure ( in mb ) Visibility ( mi km ) Precip ( " mm )
12:53 am 00:53 Cloudy 49 9.4 39 3.9 69 69 N 16 26 29.77 1008 10 16 0.00 0.00
1:53 am 01:53 Mostly Cloudy 50 10 37 2.8 61 61 N 17 28 29.77 1008 10 16 0.00 0.00
2:53 am 02:53 Cloudy 49 9.4 38 3.3 66 66 N 14 22 29.78 1009 10 16 0.00 0.00
3:53 am 03:53 Cloudy 49 9.4 38 3.3 66 66 N 12 19 29.80 1009 10 16 0.00 0.00
4:53 am 04:53 Cloudy 49 9.4 37 2.8 64 64 NNE 12 19 29.82 1010 10 16 0.00 0.00
5:53 am 05:53 Cloudy 49 9.4 36 2.2 61 61 NNE 16 26 29.86 1011 10 16 0.00 0.00
6:53 am 06:53 Cloudy 46 7.8 38 3.3 73 73 N 18 30 29.91 1013 10 16 0.00 0.00
7:29 am 07:29 Cloudy 46 7.8 38 3.3 73 73 N 20 31 29.92 1013 10 16 0.00 0.00
7:53 am 07:53 Cloudy 46 7.8 39 3.9 77 77 N 16 26 29.94 1014 10 16 0.00 0.00
8:53 am 08:53 Cloudy 47 8.3 39 3.9 74 74 N 22 35 29.96 1015 10 16 0.00 0.00
9:53 am 09:53 Cloudy 47 8.3 38 3.3 71 71 N 21 33 29.98 1015 10 16 0.00 0.00
10:22 am 10:22 Cloudy 47 8.3 39 3.9 74 74 N 20 31 29.97 1015 10 16 0.00 0.00
10:53 am 10:53 Cloudy 50 10 38 3.3 63 63 N 23 37 29.98 1015 10 16 0.00 0.00
11:53 am 11:53 Cloudy 53 11.7 38 3.3 57 57 NNW 22 35 29.98 1015 10 16 0.00 0.00
12:53 pm 12:53 Cloudy 51 10.6 37 2.8 59 59 N 16 26 30.01 1016 10 16 0.00 0.00
1:53 pm 13:53 Cloudy 54 12.2 37 2.8 53 53 N 18 30 30.00 1016 10 16 0.00 0.00
2:53 pm 14:53 Cloudy 55 12.8 38 3.3 53 53 N 18 30 29.99 1016 10 16 0.00 0.00
3:53 pm 15:53 Cloudy 54 12.2 37 2.8 53 53 N 12 19 30.00 1016 10 16 0.00 0.00
4:53 pm 16:53 Cloudy with Light Rain 51 10.6 41 5 69 69 N 17 28 30.02 1017 10 16 0.00 0.00
5:53 pm 17:53 Mostly Cloudy 55 12.8 39 3.9 55 55 N 18 30 30.02 1017 10 16 0.00 0.00
6:53 pm 18:53 Cloudy 53 11.7 38 3.3 57 57 N 20 31 30.04 1017 10 16 0.00 0.00
7:53 pm 19:53 Mostly Cloudy 53 11.7 41 5 64 64 NNW 17 28 30.07 1018 10 16 0.00 0.00
8:53 pm 20:53 Cloudy with Light Rain 47 8.3 43 6.1 86 86 NE 6 9 30.12 1020 6 10 0.00 0.00
9:02 pm 21:02 Cloudy with Light Rain 47 8.3 44 6.7 90 90 Calm 30.08 1019 10 16 0.00 0.00
9:53 pm 21:53 Cloudy 48 8.9 42 5.6 80 80 NW 10 17 30.13 1020 10 16 0.00 0.00
10:53 pm 22:53 Cloudy 48 8.9 41 5 77 77 NW 10 17 30.14 1021 10 16 0.00 0.00
11:53 pm 23:53 Cloudy 48 8.9 38 3.3 68 68 NNW 14 22 30.14 1021 10 16 0.00 0.00

Powered by AerisWeather